This demonstration page uses our WeatherBlox Daily Observations layout. Learn more.

Hourly Observations for June 23, 2019

Temp ( °F °C ) Dew Point ( °F °C ) Humidity (%) Winds ( mph kmh ) Pressure ( in mb ) Visibility ( mi km ) Precip ( " mm )
12:15 am 00:15 Cloudy with Nearby Thunderstorms 59 15.1 58 14.2 94 94 NNW 7 11 29.94 1014 10 16.09344 0 0
12:35 am 00:35 Cloudy 59 15.2 58 14.4 95 95 N 6 9 29.91 1013 10 16.09344 0 0
12:55 am 00:55 Cloudy 60 15.3 58 14.4 94 94 NNW 7 11 29.91 1013 10 16.09344 0 0
1:15 am 01:15 Cloudy 60 15.5 58 14.6 94 94 NNW 7 11 29.88 1012 10 16.09344 0 0
1:35 am 01:35 Cloudy 60 15.3 58 14.5 95 95 NNW 8 13 29.91 1013 10 16.09344 0 0
1:55 am 01:55 Cloudy 59 14.8 57 14 95 95 NW 6 9 29.88 1012 10 16.09344 0 0
2:15 am 02:15 Cloudy 58 14.7 57 14 96 96 NW 10 17 29.88 1012 10 16.09344 0 0
2:35 am 02:35 Cloudy 58 14.5 57 13.8 96 96 NW 10 17 29.88 1012 10 16.09344 0 0
2:55 am 02:55 Cloudy 58 14.3 56 13.6 96 96 NW 12 19 29.88 1012 10 16.09344 0 0
3:15 am 03:15 Cloudy 58 14.2 56 13.6 96 96 N 8 13 29.85 1011 10 16.09344 0 0
3:35 am 03:35 Mostly Cloudy with Nearby Thunderstorms 57 14 56 13.4 96 96 N 8 13 29.83 1010 10 16.09344 0 0
3:55 am 03:55 Mostly Cloudy 57 13.8 56 13.4 97 97 NNE 5 7 29.83 1010 10 16.09344 0 0
4:15 am 04:15 Cloudy 57 14 56 13.6 97 97 NNW 7 11 29.83 1010 10 16.09344 0 0
4:35 am 04:35 Cloudy 57 14 56 13.5 97 97 NNW 8 13 29.83 1010 10 16.09344 0 0
4:55 am 04:55 Cloudy 57 13.8 56 13.3 97 97 NNW 7 11 29.83 1010 10 16.09344 0 0
5:15 am 05:15 Cloudy 57 14 56 13.5 97 97 N 8 13 29.83 1010 10 16.09344 0 0
5:35 am 05:35 Cloudy 58 14.3 56 13.6 96 96 NNW 6 9 29.85 1011 10 16.09344 0 0
5:55 am 05:55 Cloudy 58 14.2 56 13.5 96 96 NW 8 13 29.85 1011 10 16.09344 0 0
6:15 am 06:15 Cloudy 58 14.2 56 13.6 96 96 N 8 13 29.85 1011 10 16.09344 0 0
6:35 am 06:35 Cloudy 57 14 56 13.5 97 97 NNW 6 9 29.85 1011 10 16.09344 0 0
6:55 am 06:55 Cloudy 57 13.8 56 13.6 99 99 N 7 11 29.85 1011 7 11.265408 0 0
7:15 am 07:15 Cloudy with Mist and Fog 56 13.6 56 13.6 100 100 NNW 6 9 29.85 1011 2.5 4.02336 0 0
7:35 am 07:35 Cloudy with Mist and Fog 56 13.6 56 13.6 100 100 N 6 9 29.85 1011 4 6.437376 0 0
7:55 am 07:55 Cloudy with Nearby Thunderstorms 57 13.8 57 13.8 100 100 Calm 29.83 1010 5 8.04672 0 0
8:15 am 08:15 Cloudy with Mist and Fog 57 13.8 57 13.8 100 100 NNW 7 11 29.85 1011 3 4.828032 0 0
8:35 am 08:35 Cloudy with Mist and Fog 57 14 57 14 100 100 NNW 7 11 29.85 1011 3 4.828032 0 0
8:55 am 08:55 Cloudy with Light Rain 57 13.8 57 13.8 100 100 NNW 9 15 29.83 1010 4 6.437376 0 0
9:15 am 09:15 Cloudy with Mist and Fog 57 13.7 57 13.7 100 100 NW 9 15 29.83 1010 5 8.04672 0 0
9:35 am 09:35 Cloudy with Light Rain 57 13.8 57 13.8 100 100 NNW 9 15 29.83 1010 4 6.437376 0 0
9:55 am 09:55 Cloudy 58 14.2 58 14.2 100 100 N 3 6 29.83 1010 7 11.265408 0 0
10:15 am 10:15 Cloudy 59 15.1 58 14.7 97 97 NNW 13 20 29.8 1009 10 16.09344 0 0
10:35 am 10:35 Cloudy 59 15.1 58 14.6 97 97 NNW 7 11 29.8 1009 10 16.09344 0 0
10:55 am 10:55 Cloudy 60 15.3 58 14.7 96 96 NNW 6 9 29.83 1010 10 16.09344 0 0
11:15 am 11:15 Cloudy 61 16.2 59 15.1 93 93 NNW 7 11 29.8 1009 10 16.09344 0 0
11:35 am 11:35 Cloudy 62 16.4 59 15.2 93 93 NNW 8 13 29.83 1010 10 16.09344 0 0
11:55 am 11:55 Cloudy 61 16.3 59 15 92 92 NW 9 15 29.83 1010 10 16.09344 0 0
12:15 pm 12:15 Cloudy 61 16.2 59 14.8 91 91 NW 8 13 29.83 1010 10 16.09344 0 0
12:35 pm 12:35 Cloudy 61 16.1 58 14.7 91 91 NNW 8 13 29.83 1010 10 16.09344 0 0
12:55 pm 12:55 Cloudy 61 16.2 58 14.7 91 91 NW 8 13 29.83 1010 10 16.09344 0 0
1:15 pm 13:15 Cloudy 63 17 59 14.8 87 87 NNW 9 15 29.83 1010 10 16.09344 0 0
1:35 pm 13:35 Cloudy 64 17.6 58 14.7 83 83 NNW 8 13 29.83 1010 10 16.09344 0 0
1:55 pm 13:55 Cloudy 63 17.2 58 14.5 84 84 NNW 9 15 29.83 1010 10 16.09344 0 0
2:15 pm 14:15 Cloudy 63 17.1 58 14.5 85 85 N 7 11 29.83 1010 10 16.09344 0 0
2:35 pm 14:35 Cloudy 64 17.6 59 15 85 85 NNW 8 13 29.8 1009 10 16.09344 0 0
2:55 pm 14:55 Cloudy 63 17.2 58 14.7 85 85 N 6 9 29.83 1010 10 16.09344 0 0
3:15 pm 15:15 Cloudy 63 17 59 15 88 88 NW 7 11 29.83 1010 10 16.09344 0 0
3:35 pm 15:35 Cloudy 62 16.9 59 15 89 89 NW 8 13 29.83 1010 10 16.09344 0 0
3:55 pm 15:55 Cloudy 63 17 59 15.2 89 89 NNW 8 13 29.83 1010 10 16.09344 0 0
4:15 pm 16:15 Cloudy 63 17.1 59 15.2 89 89 NNW 8 13 29.83 1010 10 16.09344 0 0
4:35 pm 16:35 Cloudy 64 17.8 60 15.7 88 88 NNW 9 15 29.83 1010 10 16.09344 0 0
4:55 pm 16:55 Cloudy 64 17.9 60 15.8 88 88 N 9 15 29.83 1010 10 16.09344 0 0
5:15 pm 17:15 Cloudy 64 17.7 60 15.8 89 89 N 14 22 29.83 1010 10 16.09344 0 0
5:35 pm 17:35 Cloudy 61 16 59 14.8 93 93 N 17 28 29.8 1009 10 16.09344 0 0
5:55 pm 17:55 Cloudy 61 16.2 58 14.5 90 90 N 17 28 29.8 1009 10 16.09344 0 0
6:15 pm 18:15 Cloudy 60 15.6 56 13.5 87 87 N 14 22 29.83 1010 10 16.09344 0 0
6:35 pm 18:35 Cloudy 60 15.5 55 12.9 85 85 N 14 22 29.83 1010 10 16.09344 0 0
6:55 pm 18:55 Mostly Cloudy 60 15.7 54 12.2 80 80 N 15 24 29.83 1010 10 16.09344 0 0
7:15 pm 19:15 Partly Cloudy 60 15.5 54 12.3 81 81 N 12 19 29.83 1010 10 16.09344 0 0
7:35 pm 19:35 Sunny 60 15.5 54 12.3 81 81 N 8 13 29.83 1010 10 16.09344 0 0
7:55 pm 19:55 Sunny 60 15.5 54 12.2 81 81 N 9 15 29.83 1010 10 16.09344 0 0
8:15 pm 20:15 Sunny 59 15.2 54 12.1 82 82 N 12 19 29.83 1010 10 16.09344 0 0
8:35 pm 20:35 Sunny 59 14.9 55 12.5 86 86 NNW 8 13 29.83 1010 10 16.09344 0 0
8:55 pm 20:55 Sunny 58 14.4 54 12 86 86 NNW 8 13 29.85 1011 10 16.09344 0 0
9:15 pm 21:15 Clear 57 13.7 54 12 90 90 NW 7 11 29.85 1011 10 16.09344 0 0
9:35 pm 21:35 Clear 56 13.2 54 12 93 93 NW 3 6 29.85 1011 10 16.09344 0 0
9:55 pm 21:55 Clear 56 13.3 54 12 92 92 NNW 5 7 29.88 1012 10 16.09344 0 0
10:15 pm 22:15 Clear 55 12.8 53 11.8 94 94 NNW 5 7 29.88 1012 10 16.09344 0 0
10:35 pm 22:35 Clear 54 12.1 53 11.5 96 96 NW 5 7 29.88 1012 10 16.09344 0 0
10:55 pm 22:55 Clear 54 12.2 53 11.5 96 96 NW 5 7 29.88 1012 10 16.09344 0 0
11:15 pm 23:15 Partly Cloudy 55 12.8 53 11.7 93 93 WNW 7 11 29.88 1012 10 16.09344 0 0
11:35 pm 23:35 Mostly Cloudy 55 12.8 54 12 95 95 WNW 7 11 29.88 1012 10 16.09344 0 0
11:55 pm 23:55 Cloudy 55 12.8 54 12 95 95 W 8 13 29.88 1012 10 16.09344 0 0

Powered by AerisWeather